Location: L�gaud
(45.7115°N, 1.7775°E)
Time: 15:45:52
(UTC+00:00)

MOS 1 - Pass Details

Date: 03 March 2021
Orbit: 878 x 892 km, 99.1° (Epoch: 11 April)

Event Time Altitude Azimuth Distance (km) Brightness Sun altitude
Exits shadow 19:25:59 25° 136° (SE) 1,716 5.3 -18.8°
Maximum altitude 19:29:11 55° 69° (ENE) 1,057 4.4 -19.3°
Drops below altitude 10° 19:34:43 10° 353° (N) 2,558 6.9 -20.3°
Sets 19:37:10 0° 350° (N) 3,499 7.7 -20.7°
